Regional Weather Roundup
Issued by NWS

Home | Current Version | Previous Version | Text Only | Print | Product List | Glossary Off
Versions: 1 2 3 4 5 6 7 8 9 10 11 12 13 14 15 16 17 18 19 20 21 22 23 24 25 26 27 28 29 30 31 32 33 34 35 36 37 38 39 40 41 42 43 44 45 46 47 48 49 50

000
ASUS43 KMPX 050501
RWRMN
WEATHER ROUNDUP FOR MINNESOTA
NATIONAL WEATHER SERVICE TWIN CITIES/CHANHASSEN MN
1200 AM CDT THU MAY 05 2016


NOTE: "FAIR" INDICATES FEW OR NO CLOUDS BELOW 12,000 FEET WITH NO
SIGNIFICANT WEATHER AND/OR OBSTRUCTIONS TO VISIBILITY. N/A MEANS
CURRENT SKY AND/OR WEATHER CONDITIONS ARE NOT AVAILABLE.

MNZ060>063-068>070-050600-
   Twin Cities Metro

CITY           SKY/WX    TMP DP  RH WIND       PRES   REMARKS
TWIN CITIES    CLEAR     52  29  41 E6        29.99R
ST PAUL        CLEAR     48  33  56 CALM      30.00R
CRYSTAL        CLEAR     46  30  53 CALM      29.98R
BLAINE         CLEAR     46  34  61 CALM      29.99R
EDEN PRAIRIE   CLEAR     53  24  32 N6        29.97S
SOUTH ST PAUL  CLEAR     47  34  60 CALM      29.99R
LAKE ELMO      FAIR      41  34  75 CALM      30.00S
$$
MNZ001>005-007-008-013>017-022>024-027-028-050600-
   Northwest Minnesota

CITY           SKY/WX    TMP DP  RH WIND       PRES   REMARKS
BEMIDJI        CLEAR     40  27  59 SE3       29.96S
HALLOCK        CLEAR     54  27  35 S10       29.87F
ROSEAU         CLEAR     52  32  46 S7        29.89F
WARROAD        CLOUDY    48  37  66 SE6       29.91S
THIEF RVR FALL CLEAR     50  27  40 S8        29.92F
CROOKSTON      CLEAR     54  30  40 S8        29.92F
FOSSTON        CLEAR     48  30  49 S8        29.94F
DETROIT LAKES  CLEAR     50  36  57 S3        29.98F
MOORHEAD       PTCLDY    54  34  47 SE6       29.96F
PARK RAPIDS    CLEAR     42  31  64 W3        29.96F
MAHNOMEN       FAIR      48  33  54 S7        29.95F
$$
MNZ006-009>011-018-025>026-050600-
   North Central Minnesota

CITY           SKY/WX    TMP DP  RH WIND       PRES   REMARKS
BAUDETTE       CLOUDY    47  32  56 E7        29.94F
FLAG ISLAND    CLOUDY    52  32  46 SE12      29.90S
INTL FALLS     CLOUDY    44  31  60 CALM      29.96S
WASKISH        PTCLDY    43  34  70 CALM      29.95F
BIG FORK       CLEAR     37  27  65 CALM      29.98S
LONGVILLE      CLEAR     37  32  81 CALM      29.97S
GRAND RAPIDS   CLEAR     39  21  48 CALM      29.99S
CRANE LAKE     CLEAR     30  27  86 CALM      29.99S
ORR            CLEAR     36  21  55 CALM      29.96S
COOK           CLEAR     36  27  69 CALM      29.98S
WALKER         FAIR      43  24  47 CALM      29.97S
$$
MNZ012-019>021-037-050600-
   Northeast Minnesota

CITY           SKY/WX    TMP DP  RH WIND       PRES   REMARKS
DULUTH         CLEAR     40  28  62 SE3       29.99R
ELY            CLEAR     34  28  80 CALM      29.99R
HIBBING        CLEAR     31  24  75 CALM      29.98R
EVELETH        CLEAR     36  27  69 CALM      30.00R
DULUTH HARBOR  CLEAR     39  36  87 N5        30.01S
TWO HARBORS    CLEAR     34  28  80 CALM      29.98S
SILVER BAY     CLEAR     30  27  86 CALM      29.98S
GRAND MARAIS     N/A     32  28  85 N3        30.02S
G MARAIS ARPRT CLOUDY    28  25  86 CALM      29.99S
$$
MNZ029>031-032-039>041-046>048-054>057-064-050600-
   West Central Minnesota

CITY           SKY/WX    TMP DP  RH WIND       PRES   REMARKS
FERGUS FALLS   CLEAR     54  34  47 CALM      29.96R
WHEATON        CLEAR     50  34  53 S5        30.01S
MORRIS         CLEAR     50  30  46 CALM      29.98S
ALEXANDRIA     CLEAR     48  28  46 CALM      30.00R
ELBOW LAKE     FAIR      51  44  75 SE5       29.99S
WADENA         CLEAR     45  32  61 CALM      29.98S
GLENWOOD       CLEAR     54  27  35 NW6       30.00R
APPLETON       CLEAR     48  34  57 CALM      29.99S
BENSON         CLEAR     43  30  61 NW3       29.99S
ORTONVILLE     CLEAR     54  34  47 E3        29.99F
MADISON        CLEAR     48  32  53 W5        30.00S
WILLMAR        FAIR      46  30  53 CALM      30.01R
$$
MNZ033>034-036-042>043-049>051-058-059-050600-
   Central Minnesota

CITY           SKY/WX    TMP DP  RH WIND       PRES   REMARKS
ST CLOUD       CLEAR     42  31  64 CALM      29.98S
SAUK CENTRE    FAIR      45  32  60 CALM      29.99S
PAYNESVILLE    CLEAR     43  32  65 CALM      30.01R
AITKIN         CLEAR     39  32  75 CALM      29.96S
PINE RIVER     CLEAR     41  30  65 CALM      30.01S
BRAINERD       CLEAR     42  28  57 CALM      29.98F
STAPLES        CLEAR     43  28  56 CALM      29.98F
LONG PRAIRIE   FAIR      45  32  61 CALM      30.00S
LITTLE FALLS   CLEAR     41  32  70 CALM      29.98F
LITCHFIELD     CLEAR     48  37  66 W3        30.00S
BUFFALO        CLEAR     46  32  58 CALM      29.99S
MAPLE LAKE     CLEAR     43  35  73 CALM      30.00S
HUTCHINSON     CLEAR     43  31  61 CALM      30.00S
$$
MNZ037-044-045-052-053-050600-
   East Central Minnesota

CITY           SKY/WX    TMP DP  RH WIND       PRES   REMARKS
PRINCETON      CLEAR     39  30  70 CALM      29.98S
MORA           CLEAR     37  30  75 CALM      30.00S
CAMBRIDGE      CLEAR     45  28  53 CALM      29.97S
RUSH CITY      CLEAR     39  29  68 CALM      29.98F
MOOSE LAKE     CLEAR     41  28  60 CALM      29.97S
HINCKLEY       CLOUDY    36  32  87 CALM      29.98F
CLOQUET        CLEAR     37  28  70 CALM      29.99R
MCGREGOR       CLEAR     41  30  65 CALM      29.99R
$$
MNZ071>073-080-081-089-090-097-098-050600-
   Southwest Minnesota

CITY           SKY/WX    TMP DP  RH WIND       PRES   REMARKS
MONTEVIDEO     CLEAR     52  27  37 CALM      30.01S
GRANITE FALLS  CLEAR     49  31  50 CALM      30.01S
CANBY          CLEAR     50  36  59 S5        30.02S
MARSHALL       CLEAR     47  32  56 W6        30.01S
REDWOOD FALLS  CLEAR     56  25  30 N3        29.99S
OLIVIA         CLEAR     50  28  43 CALM      29.99S
PIPESTONE      CLEAR     54  28  37 NE3       30.02S
WINDOM         CLEAR     50  30  46 CALM      30.01S
WORTHINGTON    CLEAR     48  36  63 NW6       30.02S
JACKSON        CLEAR     48  32  53 NW5       30.01S
TRACY          PTCLDY    51  33  49 W3        30.01S
SLAYTON        CLEAR     49  33  52 W5        30.03R
$$
MNZ065>067-074>077-082>085-091>093-050600-
   South Central Minnesota

CITY           SKY/WX    TMP DP  RH WIND       PRES   REMARKS
MANKATO        CLEAR     54  25  32 NE3       29.99S
ST JAMES       CLEAR     45  30  57 CALM      30.01S
FAIRMONT       CLEAR     52  28  40 CALM      29.99S
GLENCOE        CLEAR     48  33  55 CALM      29.98S
OWATONNA       CLEAR     45  30  57 CALM      29.99S
WASECA         CLEAR     45  27  49 N5        30.00S
ALBERT LEA     CLEAR     48  25  40 CALM      29.98F
$$
MNZ078>079-086>088-094>096-050600-
   Southeast Minnesota

CITY           SKY/WX    TMP DP  RH WIND       PRES   REMARKS
ROCHESTER      CLEAR     47  26  44 E8        29.99R
RED WING       CLEAR     43  28  56 CALM      29.99R
STANTON        CLEAR     41  30  65 CALM      29.98R
DODGE CENTER   PTCLDY    46  23  39 NE6       29.99S
WINONA         PTCLDY    52  28  40 CALM      29.99S
AUSTIN         CLEAR     45  30  57 CALM      29.98S
PRESTON        CLEAR     46  25  43 NE8       29.99S
$$
ABBREVIATIONS USED IN REMARKS
   TC - TEMPERATURES IN CELSIUS
  WCI - WIND CHILL INDEX
   HX - HEAT INDEX
  VSB - VISIBILITY
$$



USA.gov is the U.S. government's official web portal to all federal, state and local government web resources and services.